#timestamp,LO_Frequency,Hit,StdDev 
1611475215.6,286046997.2,N
1611475235.5,286046997.0,N
1611475255.3,286046997.3,N
1611475275.1,286046996.6,N
1611475295.9,286046999.4,N
1611475315.7,286047000.6,N
1611475335.5,286046997.2,N
1611475355.4,286046999.4,N
1611475375.2,286047000.6,N
1611475395.1,286047000.8,N
1611475396.0,286047000.8,N
1611475415.8,286046996.7,N
1611475435.6,286046999.3,N
1611475455.5,286046998.5,N
1611475475.3,286047000.4,N
1611475495.1,286047002.0,N
1611475515.9,286047004.4,N
1611475565.7,286047003.8,E
1611475575.7,286047002.5,N
1611475595.5,286047001.1,P
1611475615.3,286047000.8,N
1611475635.2,286047001.1,N
1611475655.0,286046998.8,N
1611475655.9,286046998.8,N
1611475675.8,286046998.5,N
1611475695.6,286047000.9,N
1611475715.4,286046999.5,N
1611475735.3,286046994.9,Y
1611475755.1,286046997.5,P
1611475775.8,286046995.3,P
1611475795.7,286046997.2,N
1611475815.5,286046999.1,N
1611475835.4,286046999.4,N
1611475855.2,286046996.9,N
1611475875.0,286046998.8,N
1611475875.9,286046998.8,N
1611475895.8,286046999.0,N
1611475915.6,286046998.8,N
1611475935.5,286046999.1,N
1611475955.3,286046998.9,N
1611475975.1,286047002.4,N
1611475995.9,286047004.4,N
1611476015.7,286047002.6,N
1611476035.5,286046999.8,N
1611476055.4,286047002.8,N
1611476075.2,286047001.9,N
1611476095.1,286047002.5,N
1611476096.0,286047002.5,N
1611476115.8,286047000.5,N
1611476135.6,286046999.7,N
1611476155.5,286047000.5,N
1611476175.3,286047001.4,N
1611476195.1,286047004.7,N
1611476215.9,286047007.9,Y
1611476235.7,286047012.1,P
1611476255.6,286047010.3,N
1611476275.4,286047008.3,N
1611476295.2,286047008.6,N
1611476315.1,286047007.3,N
1611476316.0,286047007.3,N
1611476335.8,286047008.5,N
1611476355.7,286047011.3,Y
1611476375.5,286047008.2,P
1611476395.3,286047010.1,P
1611476415.2,286047009.4,P
1611476435.0,286047008.6,Y
1611476435.9,286047008.6,P
1611476455.8,286046995.2,P
1611476475.6,286046994.2,N
1611476495.4,286046992.1,N
1611476515.3,286046991.9,N
1611476535.1,286046990.6,N
1611476555.8,286046993.1,N
1611476575.7,286046993.1,N
1611476595.5,286046991.5,N
1611476615.4,286046992.7,N
1611476635.2,286046992.2,N
1611476655.0,286046994.8,N
1611476655.9,286046994.8,N
1611476675.8,286046991.9,N
1611476695.6,286046992.3,N
1611476715.5,286046992.5,N
1611476735.3,286046991.9,N
1611476755.1,286046994.3,N
1611476775.9,286046992.4,N
1611476795.7,286046995.2,N
1611476815.5,286047001.0,N
1611476835.4,286047003.3,N
1611476855.2,286047006.5,N
1611476875.1,286047010.5,N
1611476876.0,286047010.5,N
1611476895.8,286047013.9,N
1611476915.6,286047011.4,N
1611476935.5,286047012.3,N
1611476955.3,286047009.4,N
1611476975.1,286047012.3,N
1611476995.9,286047012.3,N
1611477015.7,286047007.7,N
1611477035.6,286047008.0,N
1611477055.4,286047006.8,N
1611477075.2,286047006.8,N
1611477095.1,286047009.0,N
1611477096.0,286047009.0,N
1611477115.8,286047012.4,N
1611477135.7,286047011.6,N
1611477155.5,286047009.3,N
1611477175.3,286047010.0,N
1611477195.2,286047008.2,N
1611477215.0,286047010.6,N
1611477215.9,286047010.6,N
1611477235.7,286047008.7,N
1611477255.6,286047004.5,N
1611477275.4,286047010.1,N
1611477295.3,286047008.2,N
1611477315.1,286047011.2,N
1611477335.8,286047011.8,Y
1611477355.7,286047003.3,P
1611477375.5,286047008.0,N
1611477395.4,286047005.9,N
1611477415.2,286047005.2,N
1611477435.0,286047003.9,N
1611477435.9,286047003.9,N
1611477455.8,286047002.0,N
1611477475.6,286047002.8,N
1611477495.5,286047002.7,N
1611477515.3,286047005.9,N
1611477535.1,286047008.9,Y
1611477555.9,286047005.2,P
1611477575.7,286047007.6,P
1611477595.5,286047005.1,P
1611477615.4,286047001.8,N
1611477635.2,286047002.7,N
1611477655.1,286047005.8,Y
1611477656.0,286047005.8,P
1611477675.8,286047000.9,N
1611477695.6,286047002.2,N
1611477715.5,286047007.2,Y
1611477735.3,286047004.8,P
1611477755.2,286047003.8,P
1611477775.9,286047005.1,P
1611477795.7,286047006.0,Y
1611477815.6,286046997.1,P
1611477835.4,286046999.2,N
1611477855.3,286046995.7,N
1611477875.1,286046994.1,N
1611477876.0,286046994.1,N
1611477895.8,286046992.2,N
1611477915.7,286046991.6,N
1611477935.5,286046986.3,Y
1611477955.4,286046987.1,P
1611477975.2,286046985.4,P
1611478025.1,286046986.3,E
1611478035.9,286046992.4,N
1611478055.7,286046997.2,P
1611478075.6,286046997.9,N
1611478095.4,286046995.7,N
1611478115.2,286046991.7,Y
1611478135.1,286046997.3,P
1611478136.0,286046997.3,P
1611478155.8,286046997.6,P
1611478175.7,286046995.1,Y
1611478195.5,286047001.2,P
1611478215.3,286046998.6,N
1611478235.2,286046998.4,N
1611478255.0,286046999.3,N
1611478255.9,286046999.3,N
1611478275.8,286046999.2,N
1611478295.6,286046999.4,N
1611478315.4,286046998.7,N
1611478335.3,286046996.5,Y
1611478355.1,286046998.9,P
1611478375.8,286046999.0,P
1611478395.7,286046999.4,P
1611478415.5,286047001.1,Y
1611478435.4,286047000.2,P
1611478455.2,286047000.0,N
1611478475.0,286046998.2,P
1611478475.9,286046998.2,N
1611478495.8,286047000.8,N
1611478515.6,286046999.7,N
1611478535.4,286047002.5,N
1611478555.3,286047002.7,N
1611478575.1,286047002.2,N
1611478595.9,286047003.9,N
1611478615.7,286047003.5,N
1611478635.5,286047002.0,N
1611478655.4,286047007.5,Y
1611478675.2,286047011.2,P
1611478695.1,286047017.9,P
1611478696.0,286047017.9,N
1611478715.8,286047020.6,N
1611478735.6,286047022.1,Y
1611478755.5,286047014.2,P
1611478775.3,286047013.4,P
1611478795.2,286047012.6,P
